Location: Mascot Post Office (historical)
(40.2645°N, 99.5462°W)
Time: 10:41:45
(UTC+00:00)

NOSS 3-4 (C) - Pass Details

Date: 28 October 2020
Orbit: 886 x 1326 km, 63.4° (Epoch: 06 November)

Event Time Altitude Azimuth Distance (km) Brightness Sun altitude
Rises 00:43:05 0° 331° (NNW) 3,767 6.9 -12.5°
Reaches altitude 10° 00:46:29 10° 348° (NNW) 2,893 6.0 -13.1°
Maximum altitude 00:51:20 20° 33° (NNE) 2,360 5.2 -14.0°
Enters shadow 00:54:05 16° 61° (ENE) 2,623 5.2 -14.6°
